Precipitable_Water
0.28 0.28 0.28 0.28 0.28 0.28 0.28 0.28 0.30 0.30 0.30 0.32 0.32 0.32 0.32 0.32 0.32 0.32 0.34 0.34 0.34 0.34 0.34 0.36 0.36 0.36 0.36 0.36 0.36 0.36 0.36 0.36 0.38 0.40 0.40 0.40 0.40 0.40 0.42 0.42 0.42 0.42 0.42 0.42 0.42 0.42 0.42 0.42 0.42 0.44 0.46 0.46 0.48 0.48 0.50 0.50 0.51 0.51 0.53 0.53 0.59 0.61 0.61 0.63 0.63 0.63 0.63 0.63 0.63
0.28 0.28 0.28 0.28 0.28 0.28 0.28 0.30 0.30 0.32 0.32 0.32 0.32 0.34 0.34 0.34 0.34 0.34 0.34 0.34 0.36 0.36 0.36 0.36 0.38 0.38 0.38 0.38 0.38 0.38 0.40 0.42 0.42 0.42 0.42 0.42 0.44 0.44 0.44 0.44 0.46 0.46 0.46 0.46 0.46 0.44 0.44 0.44 0.46 0.48 0.48 0.50 0.50 0.51 0.53 0.55 0.55 0.55 0.57 0.57 0.59 0.61 0.63 0.63 0.65 0.65 0.67 0.67 0.67
0.28 0.28 0.28 0.28 0.28 0.28 0.30 0.30 0.30 0.32 0.32 0.34 0.34 0.34 0.34 0.34 0.34 0.36 0.36 0.36 0.36 0.38 0.38 0.38 0.38 0.40 0.40 0.40 0.40 0.42 0.44 0.44 0.44 0.44 0.44 0.46 0.46 0.46 0.46 0.46 0.48 0.48 0.48 0.48 0.48 0.48 0.48 0.48 0.51 0.51 0.51 0.53 0.53 0.53 0.55 0.57 0.57 0.57 0.57 0.57 0.57 0.59 0.61 0.63 0.63 0.65 0.67 0.69 0.71
0.28 0.28 0.28 0.28 0.28 0.30 0.30 0.30 0.30 0.32 0.32 0.34 0.34 0.34 0.34 0.36 0.36 0.36 0.38 0.38 0.38 0.38 0.40 0.40 0.42 0.42 0.42 0.44 0.44 0.44 0.46 0.46 0.46 0.46 0.46 0.46 0.46 0.48 0.48 0.48 0.50 0.50 0.50 0.51 0.51 0.51 0.51 0.53 0.55 0.55 0.55 0.57 0.55 0.55 0.55 0.55 0.55 0.55 0.55 0.55 0.55 0.57 0.57 0.61 0.63 0.65 0.65 0.67 0.67
0.26 0.28 0.28 0.28 0.30 0.30 0.30 0.32 0.32 0.32 0.32 0.34 0.34 0.34 0.34 0.36 0.38 0.38 0.38 0.40 0.40 0.40 0.42 0.44 0.44 0.44 0.44 0.44 0.44 0.44 0.44 0.44 0.46 0.46 0.46 0.46 0.48 0.50 0.51 0.51 0.51 0.51 0.51 0.53 0.53 0.53 0.55 0.57 0.57 0.57 0.57 0.57 0.55 0.55 0.53 0.53 0.53 0.53 0.53 0.53 0.53 0.55 0.55 0.57 0.59 0.63 0.63 0.65 0.65
0.26 0.28 0.28 0.30 0.30 0.30 0.30 0.32 0.32 0.32 0.32 0.34 0.34 0.34 0.34 0.36 0.38 0.38 0.38 0.40 0.40 0.42 0.42 0.42 0.42 0.42 0.42 0.42 0.42 0.44 0.44 0.46 0.46 0.48 0.48 0.48 0.51 0.51 0.53 0.53 0.53 0.53 0.53 0.53 0.55 0.57 0.59 0.59 0.59 0.59 0.57 0.55 0.55 0.53 0.53 0.53 0.51 0.51 0.51 0.50 0.51 0.53 0.53 0.55 0.57 0.59 0.61 0.63 0.61
0.26 0.28 0.28 0.30 0.30 0.30 0.30 0.32 0.32 0.32 0.34 0.34 0.34 0.34 0.34 0.36 0.38 0.38 0.38 0.40 0.40 0.42 0.42 0.42 0.42 0.42 0.44 0.44 0.44 0.44 0.46 0.48 0.48 0.50 0.50 0.51 0.51 0.53 0.53 0.53 0.53 0.53 0.55 0.55 0.57 0.59 0.59 0.59 0.59 0.57 0.55 0.55 0.53 0.53 0.53 0.53 0.51 0.51 0.50 0.50 0.51 0.51 0.53 0.53 0.55 0.57 0.59 0.59 0.59
0.28 0.28 0.28 0.30 0.30 0.30 0.30 0.32 0.32 0.32 0.34 0.34 0.34 0.36 0.36 0.36 0.38 0.40 0.40 0.42 0.42 0.42 0.42 0.44 0.44 0.44 0.44 0.46 0.46 0.46 0.48 0.50 0.50 0.51 0.51 0.51 0.53 0.53 0.53 0.53 0.55 0.55 0.57 0.57 0.59 0.59 0.59 0.59 0.57 0.55 0.55 0.55 0.53 0.53 0.53 0.53 0.51 0.51 0.51 0.51 0.51 0.51 0.53 0.53 0.53 0.55 0.55 0.57 0.57
0.26 0.28 0.28 0.30 0.30 0.32 0.32 0.32 0.32 0.34 0.36 0.36 0.36 0.38 0.38 0.38 0.40 0.42 0.42 0.42 0.42 0.44 0.44 0.44 0.46 0.46 0.46 0.48 0.48 0.48 0.50 0.51 0.51 0.51 0.53 0.53 0.53 0.53 0.53 0.53 0.55 0.57 0.57 0.59 0.57 0.55 0.55 0.55 0.53 0.53 0.55 0.55 0.53 0.55 0.55 0.55 0.53 0.53 0.55 0.53 0.53 0.53 0.53 0.53 0.53 0.53 0.55 0.55 0.55
0.26 0.28 0.30 0.30 0.32 0.34 0.34 0.34 0.34 0.36 0.36 0.38 0.38 0.38 0.40 0.40 0.42 0.42 0.42 0.44 0.44 0.46 0.46 0.46 0.48 0.48 0.48 0.50 0.50 0.51 0.51 0.53 0.51 0.51 0.51 0.51 0.51 0.51 0.53 0.53 0.55 0.55 0.55 0.57 0.55 0.53 0.53 0.53 0.53 0.53 0.53 0.53 0.53 0.53 0.55 0.55 0.55 0.55 0.55 0.57 0.55 0.55 0.53 0.53 0.53 0.53 0.53 0.53 0.55
0.28 0.30 0.32 0.32 0.34 0.34 0.36 0.36 0.36 0.38 0.38 0.38 0.40 0.40 0.40 0.42 0.42 0.44 0.44 0.46 0.46 0.46 0.48 0.48 0.50 0.50 0.51 0.51 0.51 0.53 0.53 0.53 0.51 0.51 0.51 0.51 0.51 0.51 0.51 0.53 0.53 0.55 0.55 0.53 0.53 0.53 0.53 0.53 0.53 0.53 0.53 0.53 0.53 0.53 0.55 0.55 0.55 0.55 0.57 0.57 0.57 0.55 0.53 0.53 0.53 0.53 0.53 0.53 0.55
0.30 0.30 0.32 0.34 0.34 0.36 0.36 0.36 0.36 0.38 0.38 0.40 0.40 0.42 0.42 0.44 0.44 0.46 0.46 0.48 0.48 0.48 0.48 0.50 0.50 0.51 0.51 0.51 0.51 0.51 0.51 0.51 0.51 0.51 0.51 0.51 0.51 0.51 0.53 0.53 0.53 0.53 0.53 0.53 0.53 0.53 0.53 0.53 0.53 0.53 0.53 0.53 0.55 0.55 0.55 0.55 0.55 0.55 0.55 0.57 0.57 0.55 0.55 0.53 0.53 0.53 0.53 0.53 0.53
0.30 0.32 0.34 0.34 0.36 0.36 0.36 0.38 0.38 0.40 0.40 0.40 0.42 0.42 0.44 0.46 0.46 0.48 0.48 0.48 0.48 0.48 0.50 0.50 0.50 0.51 0.51 0.51 0.51 0.51 0.51 0.51 0.51 0.51 0.51 0.51 0.53 0.53 0.53 0.53 0.53 0.53 0.53 0.53 0.53 0.53 0.53 0.53 0.53 0.53 0.53 0.53 0.53 0.53 0.53 0.53 0.53 0.55 0.55 0.55 0.55 0.55 0.55 0.55 0.53 0.53 0.55 0.53 0.53
0.32 0.34 0.34 0.36 0.36 0.38 0.38 0.38 0.38 0.40 0.42 0.42 0.44 0.44 0.46 0.46 0.48 0.48 0.48 0.48 0.48 0.48 0.50 0.50 0.50 0.51 0.51 0.51 0.51 0.51 0.51 0.51 0.51 0.51 0.53 0.53 0.53 0.53 0.53 0.53 0.53 0.53 0.53 0.53 0.53 0.53 0.53 0.53 0.53 0.53 0.53 0.53 0.53 0.53 0.53 0.53 0.53 0.53 0.55 0.55 0.55 0.55 0.55 0.55 0.55 0.55 0.55 0.53 0.53
0.32 0.34 0.36 0.36 0.38 0.38 0.40 0.40 0.40 0.42 0.44 0.44 0.46 0.46 0.48 0.48 0.48 0.50 0.50 0.50 0.50 0.50 0.50 0.51 0.51 0.51 0.51 0.51 0.51 0.51 0.51 0.51 0.53 0.53 0.53 0.53 0.53 0.53 0.53 0.53 0.53 0.53 0.53 0.53 0.53 0.53 0.53 0.53 0.53 0.53 0.53 0.53 0.53 0.53 0.55 0.55 0.55 0.55 0.55 0.55 0.55 0.55 0.55 0.55 0.55 0.55 0.55 0.53 0.53
0.34 0.34 0.36 0.38 0.38 0.40 0.40 0.42 0.42 0.44 0.46 0.46 0.48 0.48 0.48 0.48 0.48 0.50 0.50 0.50 0.50 0.51 0.51 0.51 0.51 0.51 0.51 0.51 0.51 0.51 0.51 0.51 0.53 0.53 0.53 0.53 0.53 0.53 0.53 0.53 0.53 0.53 0.53 0.53 0.53 0.53 0.53 0.55 0.55 0.55 0.55 0.55 0.55 0.55 0.55 0.55 0.55 0.55 0.55 0.55 0.55 0.55 0.55 0.55 0.55 0.55 0.55 0.53 0.53
0.34 0.36 0.38 0.40 0.40 0.42 0.42 0.42 0.44 0.46 0.46 0.46 0.48 0.48 0.48 0.48 0.48 0.50 0.51 0.51 0.51 0.51 0.51 0.51 0.51 0.51 0.51 0.51 0.51 0.51 0.51 0.51 0.53 0.53 0.53 0.53 0.53 0.53 0.53 0.53 0.53 0.53 0.53 0.53 0.53 0.55 0.55 0.55 0.57 0.57 0.57 0.57 0.57 0.57 0.57 0.57 0.57 0.57 0.57 0.55 0.55 0.57 0.55 0.55 0.55 0.55 0.55 0.53 0.53
0.36 0.38 0.40 0.40 0.42 0.42 0.44 0.44 0.44 0.46 0.46 0.48 0.48 0.48 0.48 0.50 0.50 0.51 0.51 0.51 0.51 0.51 0.51 0.51 0.51 0.51 0.51 0.51 0.51 0.51 0.53 0.53 0.53 0.53 0.53 0.53 0.53 0.53 0.53 0.53 0.53 0.55 0.55 0.55 0.55 0.57 0.57 0.57 0.59 0.59 0.59 0.59 0.59 0.59 0.59 0.59 0.57 0.57 0.57 0.57 0.57 0.57 0.57 0.57 0.57 0.55 0.55 0.53 0.53
0.38 0.40 0.40 0.42 0.42 0.44 0.44 0.46 0.46 0.46 0.48 0.48 0.48 0.48 0.50 0.50 0.51 0.51 0.51 0.53 0.53 0.51 0.51 0.51 0.51 0.51 0.51 0.51 0.51 0.53 0.53 0.53 0.53 0.53 0.53 0.55 0.55 0.55 0.55 0.55 0.55 0.55 0.57 0.57 0.57 0.59 0.59 0.59 0.61 0.61 0.61 0.61 0.61 0.61 0.61 0.59 0.59 0.59 0.57 0.57 0.57 0.57 0.57 0.57 0.57 0.57 0.55 0.55 0.53
0.40 0.40 0.42 0.44 0.44 0.44 0.46 0.46 0.46 0.48 0.48 0.48 0.50 0.50 0.50 0.51 0.51 0.51 0.53 0.53 0.53 0.53 0.51 0.51 0.51 0.51 0.51 0.51 0.53 0.53 0.53 0.53 0.53 0.55 0.55 0.55 0.55 0.55 0.55 0.57 0.57 0.57 0.59 0.59 0.59 0.59 0.61 0.61 0.61 0.61 0.61 0.61 0.61 0.61 0.61 0.59 0.59 0.59 0.59 0.57 0.57 0.57 0.57 0.59 0.59 0.59 0.59 0.57 0.55
0.40 0.42 0.44 0.44 0.46 0.46 0.46 0.46 0.48 0.48 0.48 0.50 0.50 0.51 0.51 0.51 0.53 0.53 0.53 0.53 0.53 0.51 0.51 0.51 0.51 0.51 0.51 0.51 0.53 0.53 0.53 0.55 0.55 0.55 0.55 0.57 0.57 0.57 0.57 0.57 0.59 0.59 0.59 0.59 0.59 0.61 0.61 0.61 0.63 0.63 0.63 0.63 0.61 0.61 0.61 0.61 0.59 0.59 0.59 0.59 0.57 0.57 0.57 0.57 0.59 0.59 0.59 0.59 0.59
0.42 0.44 0.44 0.46 0.46 0.46 0.46 0.46 0.48 0.48 0.50 0.50 0.51 0.51 0.53 0.53 0.53 0.53 0.53 0.53 0.51 0.51 0.51 0.51 0.51 0.51 0.51 0.53 0.53 0.53 0.55 0.55 0.55 0.55 0.57 0.57 0.57 0.57 0.59 0.59 0.59 0.59 0.59 0.61 0.61 0.61 0.61 0.63 0.63 0.63 0.63 0.63 0.63 0.61 0.61 0.61 0.61 0.59 0.59 0.59 0.59 0.57 0.57 0.57 0.59 0.59 0.61 0.61 0.61
0.44 0.44 0.46 0.46 0.46 0.46 0.46 0.48 0.48 0.50 0.51 0.51 0.53 0.53 0.53 0.53 0.53 0.53 0.53 0.51 0.51 0.51 0.51 0.51 0.51 0.51 0.53 0.53 0.53 0.55 0.55 0.55 0.55 0.57 0.57 0.57 0.57 0.59 0.59 0.59 0.59 0.59 0.61 0.61 0.61 0.63 0.63 0.63 0.63 0.63 0.63 0.63 0.63 0.63 0.63 0.63 0.61 0.61 0.61 0.59 0.59 0.59 0.59 0.59 0.59 0.59 0.61 0.61 0.63
0.44 0.46 0.46 0.46 0.46 0.46 0.46 0.48 0.50 0.51 0.51 0.53 0.53 0.53 0.53 0.53 0.53 0.53 0.51 0.50 0.50 0.50 0.51 0.51 0.51 0.53 0.53 0.53 0.55 0.55 0.55 0.55 0.55 0.57 0.57 0.57 0.57 0.59 0.59 0.59 0.61 0.61 0.61 0.61 0.63 0.63 0.63 0.63 0.63 0.63 0.63 0.63 0.63 0.63 0.63 0.63 0.63 0.63 0.63 0.61 0.61 0.59 0.59 0.59 0.59 0.59 0.59 0.61 0.63
0.46 0.46 0.46 0.46 0.46 0.46 0.48 0.50 0.51 0.51 0.53 0.53 0.53 0.53 0.53 0.53 0.51 0.51 0.51 0.50 0.50 0.50 0.51 0.51 0.53 0.53 0.53 0.55 0.55 0.55 0.55 0.57 0.57 0.57 0.57 0.57 0.57 0.59 0.59 0.59 0.61 0.61 0.61 0.63 0.63 0.63 0.65 0.65 0.63 0.63 0.61 0.61 0.61 0.61 0.61 0.61 0.61 0.61 0.61 0.61 0.59 0.59 0.59 0.59 0.59 0.59 0.59 0.59 0.61
0.46 0.46 0.46 0.46 0.46 0.48 0.50 0.50 0.51 0.53 0.53 0.53 0.53 0.53 0.51 0.51 0.51 0.50 0.50 0.50 0.50 0.51 0.51 0.51 0.53 0.53 0.53 0.55 0.55 0.55 0.55 0.57 0.57 0.57 0.57 0.57 0.57 0.57 0.59 0.59 0.61 0.61 0.63 0.63 0.63 0.63 0.63 0.63 0.61 0.61 0.61 0.61 0.61 0.61 0.61 0.61 0.61 0.61 0.61 0.61 0.61 0.59 0.59 0.59 0.59 0.59 0.59 0.59 0.61
0.46 0.46 0.46 0.46 0.48 0.48 0.50 0.51 0.53 0.53 0.53 0.53 0.51 0.51 0.51 0.50 0.50 0.50 0.50 0.50 0.50 0.51 0.51 0.51 0.53 0.53 0.53 0.55 0.55 0.55 0.55 0.57 0.57 0.57 0.57 0.57 0.57 0.57 0.57 0.59 0.59 0.61 0.63 0.63 0.61 0.61 0.61 0.61 0.61 0.63 0.63 0.63 0.61 0.61 0.61 0.61 0.61 0.61 0.61 0.61 0.61 0.59 0.59 0.59 0.57 0.57 0.57 0.59 0.61
0.46 0.46 0.46 0.48 0.48 0.50 0.50 0.51 0.53 0.53 0.51 0.51 0.51 0.50 0.50 0.50 0.50 0.50 0.50 0.50 0.50 0.51 0.51 0.51 0.53 0.53 0.53 0.55 0.55 0.55 0.55 0.57 0.57 0.57 0.57 0.57 0.57 0.57 0.59 0.59 0.61 0.61 0.61 0.61 0.61 0.61 0.61 0.63 0.63 0.63 0.63 0.63 0.63 0.61 0.61 0.61 0.61 0.61 0.61 0.61 0.61 0.59 0.59 0.59 0.59 0.57 0.57 0.57 0.59
0.46 0.48 0.48 0.48 0.50 0.50 0.51 0.51 0.51 0.51 0.51 0.51 0.50 0.50 0.50 0.50 0.50 0.50 0.50 0.50 0.50 0.51 0.51 0.51 0.53 0.53 0.53 0.53 0.55 0.55 0.57 0.57 0.57 0.57 0.57 0.57 0.59 0.59 0.59 0.61 0.61 0.61 0.61 0.61 0.61 0.61 0.63 0.63 0.63 0.63 0.63 0.63 0.61 0.61 0.61 0.61 0.61 0.61 0.61 0.61 0.61 0.61 0.59 0.59 0.59 0.59 0.59 0.57 0.59
0.48 0.48 0.48 0.48 0.50 0.51 0.51 0.51 0.51 0.51 0.51 0.50 0.50 0.50 0.48 0.48 0.48 0.48 0.50 0.50 0.50 0.51 0.51 0.53 0.53 0.53 0.53 0.53 0.55 0.55 0.55 0.57 0.57 0.59 0.59 0.59 0.59 0.59 0.59 0.61 0.61 0.61 0.61 0.61 0.61 0.61 0.61 0.61 0.61 0.61 0.61 0.61 0.61 0.61 0.61 0.61 0.61 0.61 0.59 0.59 0.59 0.61 0.61 0.61 0.59 0.59 0.59 0.57 0.57
0.48 0.48 0.50 0.50 0.50 0.51 0.51 0.51 0.51 0.50 0.50 0.50 0.48 0.48 0.48 0.48 0.48 0.48 0.48 0.50 0.51 0.51 0.51 0.53 0.53 0.53 0.53 0.53 0.53 0.55 0.55 0.57 0.59 0.59 0.59 0.59 0.59 0.59 0.61 0.61 0.61 0.61 0.61 0.61 0.61 0.61 0.61 0.61 0.61 0.61 0.61 0.61 0.61 0.61 0.61 0.61 0.61 0.59 0.59 0.59 0.59 0.59 0.61 0.61 0.61 0.59 0.59 0.59 0.57
0.50 0.50 0.50 0.50 0.51 0.51 0.51 0.50 0.50 0.50 0.48 0.48 0.48 0.46 0.46 0.46 0.46 0.48 0.48 0.50 0.50 0.51 0.51 0.51 0.51 0.51 0.53 0.53 0.53 0.55 0.55 0.57 0.59 0.59 0.59 0.59 0.59 0.59 0.59 0.59 0.59 0.61 0.61 0.61 0.61 0.61 0.61 0.61 0.59 0.59 0.59 0.59 0.61 0.59 0.59 0.59 0.59 0.59 0.57 0.55 0.57 0.57 0.59 0.61 0.61 0.61 0.59 0.59 0.59
0.50 0.50 0.50 0.50 0.51 0.51 0.50 0.50 0.48 0.48 0.48 0.46 0.46 0.46 0.46 0.46 0.46 0.48 0.48 0.48 0.50 0.50 0.50 0.51 0.51 0.51 0.51 0.53 0.53 0.55 0.57 0.57 0.59 0.59 0.59 0.59 0.59 0.59 0.59 0.59 0.59 0.59 0.61 0.61 0.61 0.61 0.59 0.59 0.57 0.57 0.57 0.57 0.57 0.57 0.57 0.57 0.57 0.55 0.55 0.55 0.55 0.55 0.57 0.59 0.61 0.61 0.61 0.61 0.61
0.50 0.50 0.50 0.50 0.50 0.50 0.50 0.50 0.48 0.48 0.46 0.46 0.46 0.46 0.46 0.46 0.46 0.46 0.48 0.48 0.48 0.50 0.50 0.51 0.51 0.51 0.53 0.53 0.55 0.55 0.57 0.57 0.59 0.59 0.59 0.59 0.59 0.57 0.57 0.59 0.59 0.61 0.61 0.61 0.61 0.59 0.59 0.57 0.57 0.55 0.55 0.55 0.55 0.55 0.55 0.55 0.55 0.55 0.53 0.55 0.55 0.55 0.55 0.57 0.59 0.61 0.61 0.61 0.61
0.50 0.50 0.50 0.50 0.50 0.50 0.50 0.50 0.48 0.46 0.46 0.46 0.46 0.46 0.46 0.46 0.46 0.46 0.48 0.48 0.48 0.50 0.50 0.51 0.51 0.53 0.53 0.55 0.55 0.57 0.57 0.57 0.57 0.59 0.59 0.59 0.57 0.57 0.57 0.59 0.59 0.61 0.61 0.59 0.59 0.59 0.57 0.57 0.57 0.55 0.55 0.55 0.55 0.55 0.55 0.55 0.55 0.55 0.55 0.55 0.55 0.55 0.55 0.57 0.57 0.59 0.61 0.63 0.61
0.50 0.50 0.50 0.50 0.50 0.50 0.50 0.48 0.46 0.46 0.46 0.44 0.46 0.46 0.46 0.46 0.46 0.48 0.48 0.48 0.48 0.50 0.50 0.51 0.51 0.53 0.53 0.55 0.55 0.55 0.57 0.57 0.57 0.57 0.57 0.57 0.57 0.57 0.57 0.59 0.59 0.61 0.59 0.59 0.59 0.57 0.57 0.57 0.57 0.55 0.55 0.55 0.55 0.55 0.55 0.55 0.55 0.55 0.55 0.55 0.55 0.55 0.57 0.57 0.57 0.59 0.59 0.63 0.63
0.50 0.50 0.50 0.50 0.50 0.50 0.50 0.48 0.46 0.46 0.44 0.44 0.44 0.46 0.46 0.48 0.48 0.48 0.48 0.50 0.50 0.50 0.50 0.51 0.53 0.53 0.53 0.55 0.55 0.55 0.55 0.57 0.57 0.57 0.57 0.57 0.57 0.57 0.57 0.59 0.59 0.59 0.59 0.59 0.59 0.57 0.57 0.57 0.57 0.55 0.55 0.55 0.55 0.55 0.55 0.55 0.55 0.55 0.57 0.55 0.57 0.57 0.57 0.57 0.57 0.59 0.59 0.61 0.63
0.51 0.51 0.50 0.50 0.50 0.50 0.50 0.48 0.46 0.46 0.44 0.44 0.44 0.46 0.46 0.48 0.48 0.50 0.50 0.50 0.50 0.50 0.51 0.51 0.53 0.53 0.53 0.55 0.55 0.55 0.55 0.55 0.55 0.55 0.55 0.55 0.55 0.57 0.57 0.59 0.59 0.59 0.59 0.59 0.59 0.59 0.57 0.57 0.57 0.55 0.55 0.53 0.53 0.53 0.55 0.55 0.57 0.57 0.57 0.57 0.57 0.57 0.57 0.57 0.59 0.59 0.59 0.61 0.63
0.51 0.51 0.51 0.51 0.50 0.50 0.50 0.48 0.48 0.46 0.44 0.44 0.44 0.44 0.46 0.48 0.48 0.50 0.51 0.51 0.51 0.51 0.51 0.51 0.53 0.53 0.53 0.53 0.53 0.53 0.53 0.53 0.55 0.55 0.55 0.55 0.57 0.57 0.59 0.59 0.59 0.59 0.59 0.59 0.59 0.59 0.59 0.57 0.55 0.55 0.55 0.53 0.53 0.53 0.55 0.55 0.55 0.55 0.57 0.55 0.55 0.55 0.57 0.57 0.59 0.59 0.61 0.61 0.63
0.51 0.51 0.51 0.51 0.51 0.50 0.50 0.48 0.48 0.48 0.46 0.44 0.44 0.44 0.46 0.46 0.48 0.50 0.50 0.51 0.51 0.51 0.51 0.51 0.51 0.51 0.53 0.51 0.51 0.51 0.51 0.53 0.53 0.53 0.55 0.55 0.57 0.57 0.59 0.59 0.59 0.59 0.59 0.59 0.59 0.59 0.59 0.57 0.55 0.55 0.55 0.53 0.55 0.55 0.55 0.55 0.55 0.55 0.55 0.55 0.55 0.55 0.55 0.57 0.59 0.61 0.61 0.63 0.63
0.50 0.51 0.51 0.51 0.51 0.51 0.50 0.50 0.50 0.48 0.46 0.46 0.44 0.44 0.46 0.46 0.48 0.48 0.50 0.50 0.50 0.50 0.51 0.51 0.50 0.51 0.51 0.51 0.51 0.51 0.51 0.51 0.51 0.53 0.55 0.55 0.57 0.57 0.59 0.59 0.59 0.59 0.59 0.59 0.61 0.59 0.59 0.57 0.55 0.55 0.55 0.55 0.55 0.55 0.55 0.55 0.55 0.55 0.55 0.55 0.57 0.57 0.57 0.59 0.59 0.61 0.63 0.63 0.63
Wind_Speed
39 39 39 39 40 40 40 40 40 40 40 40 41 41 41 41 41 42 42 42 42 43 43 44 44 44 44 45 45 45 45 44 43 43 42 42 42 41 41 40 39 39 39 39 39 39 39 39 39 40 40 40 41 41 41 42 42 42 43 43 43 43 44 44 44 45 45 45 45
39 39 39 40 40 40 40 40 40 40 40 40 40 41 41 41 42 42 42 42 43 43 44 44 44 45 45 45 45 44 44 43 42 42 41 41 41 40 39 39 38 38 38 38 38 38 38 38 39 39 40 40 40 41 41 41 41 42 42 43 43 44 44 44 45 45 45 45 45
39 39 39 39 40 40 40 40 40 40 40 40 40 40 41 41 41 42 42 42 43 43 44 44 44 45 45 45 44 44 43 42 41 41 40 40 39 39 38 38 38 38 38 38 38 38 38 39 39 39 39 39 39 40 40 41 41 41 42 43 43 43 44 44 45 45 45 45 45
39 39 39 39 39 39 39 39 40 40 40 40 40 40 41 41 41 42 42 42 43 43 44 44 44 44 44 44 43 42 41 41 40 40 39 39 38 38 37 37 37 37 38 38 38 39 39 39 39 38 38 38 38 39 39 39 40 41 41 42 42 43 44 44 45 45 45 45 45
39 38 38 39 39 39 39 39 39 40 40 40 40 41 41 41 42 42 42 43 43 43 44 44 44 44 44 43 43 42 41 40 40 39 39 38 37 37 37 37 37 37 38 38 38 38 38 38 38 37 37 37 37 37 37 38 39 40 40 41 42 43 44 44 45 45 45 45 45
38 38 38 38 39 39 39 39 39 40 40 41 41 41 42 42 42 43 43 43 44 44 44 44 44 44 43 42 41 40 40 39 38 38 37 37 36 36 36 37 37 37 37 37 37 37 37 36 36 36 35 35 35 36 36 37 37 38 40 41 42 42 43 44 45 45 46 46 46
38 38 38 38 39 39 39 39 40 40 41 41 42 42 42 43 43 44 44 44 44 44 44 44 43 42 41 40 39 38 37 37 36 36 36 35 36 36 36 37 37 37 37 36 35 35 34 34 34 34 34 34 34 35 35 36 37 38 39 40 41 42 43 44 44 45 46 46 47
37 38 38 38 39 39 39 40 40 41 41 42 42 43 43 43 44 44 44 44 44 44 43 42 42 40 39 38 37 37 36 36 36 35 35 35 36 36 36 36 36 35 34 34 33 33 32 32 32 33 33 33 33 34 35 35 37 38 39 40 40 41 42 43 43 44 45 46 46
37 38 38 38 39 39 40 40 41 41 42 42 43 43 43 43 44 44 44 44 44 43 42 41 40 39 38 37 36 36 35 35 35 35 35 35 36 36 35 35 34 33 32 32 31 31 31 32 32 32 32 33 33 33 34 35 36 37 38 39 39 40 40 41 42 43 44 45 45
37 38 38 39 39 39 40 41 41 42 42 42 43 43 43 43 44 44 44 43 42 41 40 39 38 37 37 36 36 35 35 34 35 35 35 35 35 34 33 33 32 31 30 30 30 30 31 31 31 31 32 32 33 33 34 34 35 36 36 37 38 38 39 40 40 41 42 43 44
37 38 38 39 39 40 40 41 41 42 42 42 43 43 43 43 43 43 43 42 41 40 38 37 37 36 35 35 34 34 34 34 34 34 34 34 33 32 31 31 30 29 29 29 29 29 29 30 30 30 31 31 32 32 33 34 34 35 35 35 36 37 38 38 38 39 40 41 42
38 38 39 39 40 40 41 41 42 42 42 42 43 43 43 43 43 42 41 40 39 37 36 35 35 35 34 34 34 33 33 33 33 33 33 32 31 30 30 29 28 28 28 28 28 28 28 29 29 30 30 30 30 31 31 32 32 33 34 34 35 35 36 36 37 37 38 39 41
38 38 39 40 40 41 41 41 42 42 42 42 42 42 42 42 41 40 39 37 36 35 35 34 34 34 34 34 33 33 33 32 32 31 31 30 29 28 28 27 27 27 27 27 27 27 27 28 28 28 29 29 29 29 29 30 30 31 32 32 33 33 34 34 35 36 37 38 39
38 39 39 40 41 41 41 41 41 42 42 42 42 42 41 40 39 37 36 35 35 34 34 34 34 33 33 33 32 32 31 31 30 29 29 28 27 27 26 26 26 26 26 26 26 26 27 27 27 27 27 28 28 28 28 28 28 29 29 30 30 31 32 32 33 34 35 36 37
38 39 40 40 41 41 41 41 41 41 41 41 40 40 38 37 36 35 34 34 34 34 33 33 32 32 31 31 30 30 29 28 28 27 26 26 26 25 25 25 25 25 25 25 25 25 26 26 26 26 26 26 26 26 26 27 27 27 27 28 28 29 29 30 31 32 33 34 35
39 39 40 40 41 41 41 41 40 40 40 39 38 37 36 35 34 34 33 33 33 32 32 31 30 30 29 28 28 27 26 26 25 25 24 24 24 24 24 24 24 24 24 24 25 25 25 25 25 25 25 25 26 26 26 26 26 26 26 26 26 26 27 28 29 30 31 32 33
39 40 40 40 40 40 40 40 39 39 38 37 36 35 35 34 33 32 32 32 31 31 30 29 28 27 26 25 25 24 24 23 23 23 23 23 23 23 23 23 23 23 24 24 24 24 24 25 25 25 25 25 25 25 26 26 26 25 25 25 25 25 25 26 27 28 29 31 32
39 39 40 40 39 39 39 39 38 37 36 36 35 34 33 32 32 31 30 30 29 28 27 26 25 24 24 23 22 22 22 22 22 22 22 22 22 22 22 23 23 23 23 23 24 24 24 24 24 24 24 25 25 25 26 26 26 25 25 24 24 24 24 24 25 26 27 29 31
39 39 39 39 38 38 38 37 36 36 35 34 33 32 32 31 30 29 29 28 27 26 25 24 23 22 21 21 21 21 21 21 21 21 21 21 22 22 22 22 22 23 23 23 24 24 24 24 25 25 24 25 25 25 25 26 25 25 25 24 24 23 23 23 24 24 26 27 29
38 38 38 37 37 37 36 36 35 34 33 32 32 31 30 29 28 27 26 25 24 23 22 21 21 20 20 20 20 20 20 20 20 20 21 21 21 21 21 22 22 22 23 23 24 24 24 25 25 25 25 25 25 25 25 25 25 25 25 24 24 23 23 23 23 23 24 25 27
37 37 36 36 36 36 35 34 34 33 32 31 30 29 28 27 26 25 24 23 22 21 20 20 19 19 19 19 19 19 19 19 19 19 20 20 20 20 21 21 22 22 23 23 23 24 24 25 25 25 25 25 25 25 25 25 25 25 25 24 24 23 23 22 22 22 23 24 26
36 36 35 35 35 34 34 33 32 31 30 29 28 27 26 25 24 23 22 21 20 19 19 19 18 18 18 18 18 18 18 18 18 19 19 19 19 20 20 21 21 22 22 23 23 24 24 25 25 25 25 25 25 26 26 26 26 26 26 25 25 24 23 22 22 22 22 23 24
35 35 34 34 34 33 32 31 30 29 28 27 26 25 24 23 22 21 20 20 19 18 18 18 17 17 17 17 17 18 18 18 18 18 19 19 19 20 20 21 22 22 22 23 23 23 24 24 24 25 25 25 25 25 25 26 26 27 27 26 26 25 24 23 22 22 22 23 24
34 34 33 33 32 31 30 29 28 27 26 25 24 23 22 21 21 20 19 18 18 17 17 17 17 17 17 17 17 17 17 18 18 18 18 19 19 20 20 21 21 22 22 22 22 22 23 23 23 23 23 23 24 24 25 25 25 25 25 25 25 25 24 24 23 23 23 23 23
33 32 32 31 31 30 28 27 26 25 24 23 22 21 21 20 19 19 18 18 17 17 16 16 16 17 17 17 17 17 17 17 17 18 18 18 19 19 20 20 20 21 21 21 21 21 21 22 22 23 23 24 25 26 27 27 27 27 27 27 26 25 24 23 23 23 23 23 23
32 31 31 30 29 28 26 25 24 23 22 21 21 20 20 19 18 18 17 17 17 17 16 16 17 17 17 17 17 17 17 17 17 17 17 18 18 19 19 19 20 20 20 20 21 21 22 23 24 25 26 26 27 28 28 29 29 29 29 29 28 27 26 25 23 22 22 22 22
31 30 29 28 27 26 25 24 23 22 21 20 20 19 19 18 18 17 17 17 17 17 17 17 17 17 17 17 18 18 17 17 17 17 17 17 18 19 19 19 19 20 20 21 22 22 23 24 25 26 27 27 28 28 28 28 29 29 29 29 29 28 28 27 25 24 22 22 22
29 29 28 27 26 24 23 22 21 21 20 20 19 19 19 18 18 17 17 17 16 16 16 17 17 17 17 17 17 18 18 17 17 17 17 17 18 18 19 19 20 20 21 22 22 23 23 24 25 26 27 27 28 28 28 28 28 28 28 28 28 28 28 28 27 25 24 23 22
28 28 27 26 24 23 22 21 20 20 19 19 19 19 18 18 18 17 17 17 17 16 16 16 16 16 17 17 17 17 18 17 17 17 17 17 18 18 18 19 20 21 21 22 22 23 23 24 25 26 26 27 27 27 27 27 27 27 27 27 27 28 28 28 27 26 25 24 23
28 27 26 25 23 22 21 20 19 19 19 18 18 18 18 18 18 17 17 17 17 17 16 16 16 17 17 17 17 17 17 17 17 17 17 17 17 18 19 19 20 20 21 22 22 23 23 24 24 25 25 26 26 25 25 25 25 25 25 25 26 26 27 27 27 27 26 25 24
27 26 25 24 22 21 20 19 19 18 18 18 18 18 18 18 18 17 17 17 17 17 17 17 17 17 17 17 17 18 17 17 17 17 17 17 18 18 18 19 20 20 21 22 22 23 23 23 23 23 24 24 24 23 23 23 23 24 24 24 25 26 26 27 27 27 27 26 25
26 25 24 23 22 20 19 18 18 18 18 18 18 18 18 18 18 17 17 17 17 17 17 17 17 18 18 18 18 18 17 17 17 17 17 17 17 18 18 19 19 20 21 22 22 22 22 22 22 22 22 23 23 22 22 23 23 23 24 24 25 25 26 26 27 27 27 27 26
26 25 24 22 21 20 19 18 17 17 18 18 18 18 18 18 18 17 17 17 17 17 17 17 17 17 18 18 18 18 17 17 16 17 17 17 18 18 18 19 19 20 21 21 22 22 22 21 22 22 22 22 22 22 22 22 23 23 24 24 25 25 26 26 26 27 27 27 27
25 24 23 22 21 19 18 18 17 17 17 17 18 18 18 18 18 17 17 16 16 17 17 17 17 17 17 18 17 17 17 16 16 17 17 17 18 18 18 18 19 19 20 21 21 21 21 21 22 22 22 22 22 22 22 22 23 23 24 24 25 25 26 26 26 27 27 27 27
25 24 22 21 20 19 18 18 17 17 17 17 17 17 18 18 17 17 17 16 16 16 16 16 17 17 17 17 17 17 17 17 17 17 17 17 17 18 18 18 18 19 20 20 21 21 21 21 21 21 21 21 21 21 21 22 22 23 24 24 25 25 26 26 26 26 26 27 27
24 23 22 21 20 19 18 18 17 17 17 17 17 17 17 17 17 16 16 16 16 16 16 16 16 17 17 17 17 16 16 16 17 17 17 17 17 17 17 18 18 19 20 20 20 21 21 21 21 21 21 21 20 20 21 21 21 22 23 23 24 24 25 25 26 26 26 26 26
24 23 22 21 20 19 18 18 17 16 16 16 16 16 16 16 16 15 15 15 15 16 16 16 16 16 16 16 16 16 16 16 16 16 16 16 16 16 17 17 18 19 19 19 20 20 21 21 20 20 20 20 19 19 20 20 21 21 21 22 22 22 23 23 24 25 25 25 25
24 23 22 20 19 18 18 17 17 16 16 16 15 15 15 14 14 14 14 14 15 15 15 15 15 16 16 16 16 16 16 16 15 15 15 15 15 16 16 17 18 18 18 19 19 20 20 20 20 20 19 19 19 19 19 19 20 20 20 20 19 19 20 20 22 23 24 24 24
24 23 22 20 19 18 17 17 16 16 15 15 15 14 14 13 13 13 14 14 14 14 14 15 15 15 15 16 16 15 15 15 14 14 14 14 15 15 16 16 17 17 18 18 19 19 19 20 19 19 19 18 18 18 18 19 19 19 19 18 17 16 16 17 19 20 21 22 22
24 23 22 21 19 18 17 16 16 16 15 15 14 14 13 13 13 13 13 13 13 13 14 14 14 15 15 15 15 15 14 14 14 13 13 13 14 14 15 15 16 17 17 18 18 19 19 19 19 18 18 17 17 17 17 18 18 18 18 16 14 13 12 13 15 17 18 19 20
24 23 22 21 20 18 17 16 16 15 15 15 14 13 13 13 12 12 12 13 13 13 13 13 14 14 14 14 14 13 13 13 13 12 12 12 13 13 14 15 15 16 17 17 17 18 18 18 18 17 17 16 16 16 17 17 18 17 17 15 12 9 8 9 11 13 15 16 18
Wind_Direction
296 296 295 295 294 294 293 292 292 291 290 290 289 289 288 288 288 287 287 286 286 286 286 285 285 285 285 285 285 284 284 284 283 283 282 282 281 281 280 278 277 276 275 275 274 273 273 272 272 271 270 269 268 267 266 265 265 264 263 262 261 260 259 258 258 257 256 256 256
296 295 295 294 294 293 293 292 291 291 290 290 289 289 289 288 288 288 287 287 286 286 286 286 286 286 286 285 285 285 285 284 284 283 282 282 281 280 279 278 277 277 276 276 275 275 274 273 272 271 270 269 268 268 267 266 265 265 264 263 262 261 260 259 258 257 256 256 255
296 295 295 294 294 293 293 292 292 291 291 290 290 290 289 289 288 288 288 287 287 287 287 286 286 286 286 286 286 285 285 284 284 283 282 281 281 280 279 278 278 277 277 276 276 275 275 274 273 272 271 270 269 268 267 266 266 265 265 264 263 262 261 260 259 258 257 256 255
296 295 295 294 294 293 293 292 292 292 291 291 291 290 290 289 289 288 288 288 288 287 287 287 287 287 287 286 286 285 284 284 283 282 281 281 280 280 279 279 278 278 277 277 276 276 275 274 273 272 270 269 268 268 267 267 266 266 265 264 264 263 262 261 260 258 257 256 255
296 295 295 294 294 294 293 293 293 293 292 292 292 291 291 290 290 289 289 289 288 288 288 288 288 288 287 287 286 285 284 283 282 281 281 280 280 280 279 279 278 278 277 277 276 276 275 274 272 271 270 269 268 268 267 267 267 266 266 265 264 263 262 261 260 259 257 256 255
296 296 295 295 295 294 294 294 294 293 293 293 292 292 291 291 290 290 289 289 289 289 289 289 288 288 288 287 285 284 283 282 282 281 281 281 280 280 280 279 279 278 278 277 276 275 274 273 272 271 270 269 269 269 269 269 268 268 267 266 265 264 263 261 260 259 257 256 254
296 296 296 296 295 295 295 295 294 294 294 293 292 292 291 291 290 290 289 289 289 289 289 289 289 289 288 286 285 284 283 283 283 282 282 281 280 280 280 279 279 278 278 277 276 274 273 272 271 271 270 271 271 271 271 271 270 270 269 268 266 265 263 262 260 259 257 255 254
297 297 297 297 296 296 296 295 295 294 294 293 292 292 291 291 290 290 290 290 290 290 290 290 289 288 287 286 285 284 284 284 283 283 282 282 281 281 280 280 279 278 277 276 274 273 272 272 271 271 271 271 272 272 272 272 272 271 271 270 268 266 264 262 260 258 256 255 253
298 298 297 297 297 296 296 295 295 294 294 293 293 292 292 292 291 291 291 291 291 291 290 290 289 288 287 286 285 284 284 284 283 283 283 282 282 281 281 280 279 277 275 274 273 272 272 272 271 271 271 271 272 272 273 273 273 273 272 271 270 268 265 263 260 258 256 254 252
298 298 298 298 297 297 296 296 295 295 294 294 294 293 293 293 292 292 292 292 292 291 290 289 288 287 286 285 285 284 283 283 283 283 282 282 281 281 280 279 277 276 274 273 272 272 272 272 272 272 272 272 272 273 273 274 274 274 274 272 271 268 266 263 260 258 255 253 251
299 299 298 298 298 297 297 297 296 296 295 295 295 294 294 293 293 293 293 292 292 291 290 289 288 287 286 286 285 284 283 283 282 282 282 281 280 279 278 277 275 274 273 273 272 272 272 272 272 272 273 273 274 274 274 275 275 275 274 273 271 269 266 264 261 258 255 253 250
299 299 299 299 298 298 298 297 297 297 296 296 295 295 294 294 294 294 293 293 291 290 290 289 288 288 287 286 285 284 283 282 282 281 281 280 279 278 276 275 274 273 272 273 273 273 272 272 272 273 273 274 275 276 276 276 276 276 275 274 272 269 267 264 261 258 255 253 250
300 300 300 299 299 299 299 298 298 297 297 296 296 295 295 295 295 294 293 292 291 290 290 289 288 287 286 285 284 283 282 282 281 280 279 279 278 276 275 274 273 273 273 273 273 273 272 272 272 273 274 275 276 277 278 278 278 277 276 275 272 270 267 264 261 258 256 253 250
301 301 300 300 300 300 299 299 298 298 297 296 296 296 296 296 295 294 293 292 291 290 290 289 288 286 285 284 283 282 281 280 280 279 278 277 276 275 274 273 273 273 273 273 273 273 272 272 273 274 275 276 277 279 279 280 280 279 278 276 273 270 267 264 261 259 256 253 250
302 301 301 301 301 301 300 300 299 298 297 297 297 297 297 296 295 294 293 292 291 290 289 289 288 286 285 283 282 281 280 279 279 278 277 276 275 274 273 273 273 273 273 273 273 272 272 272 273 274 275 277 279 280 281 281 281 280 279 277 274 271 268 264 261 258 255 252 250
302 302 302 302 302 302 301 300 299 298 298 298 298 298 297 296 295 294 293 292 291 290 289 288 287 286 284 282 281 280 279 279 278 277 276 275 274 274 273 273 273 273 273 273 273 273 273 273 274 275 276 278 280 281 282 282 282 281 280 278 276 273 269 265 262 258 255 252 250
303 303 303 303 303 302 301 300 300 299 299 299 299 298 297 296 295 294 293 292 291 290 289 288 286 285 283 282 281 280 279 278 277 276 275 274 274 274 274 274 273 273 273 273 273 273 273 273 274 276 277 279 280 282 283 283 283 283 281 280 277 274 271 267 263 259 255 252 250
304 304 305 304 304 303 302 301 300 300 300 299 299 298 297 296 295 294 294 293 292 290 289 287 285 284 282 281 280 279 278 278 277 276 275 275 274 274 274 274 273 273 273 273 273 273 274 274 275 276 278 279 280 282 283 283 284 284 283 281 279 276 273 269 265 261 257 253 250
306 306 306 305 304 303 302 302 301 301 300 300 299 298 298 297 296 295 294 293 291 289 287 285 284 282 281 280 280 279 278 278 277 276 275 274 274 274 273 273 273 273 273 273 273 274 275 275 276 277 278 279 280 281 282 283 283 284 284 283 281 278 275 271 267 263 258 254 250
307 307 307 306 305 304 303 302 302 301 301 300 300 299 298 298 297 295 294 292 290 288 286 284 282 281 281 280 280 279 279 278 277 276 275 274 274 274 274 274 274 274 274 274 275 275 276 277 278 278 279 279 280 280 281 282 282 283 283 282 281 279 276 272 268 264 260 255 250
309 309 308 307 306 305 304 303 302 302 301 301 300 299 299 298 296 295 292 290 288 286 284 282 282 281 280 280 280 279 278 277 276 275 275 275 274 274 274 274 274 275 275 275 276 277 278 279 279 280 280 280 280 280 280 281 281 281 281 281 280 279 276 273 269 265 260 255 250
310 310 309 308 307 306 305 304 303 302 302 301 300 300 299 298 296 294 292 289 287 284 283 282 281 280 280 280 279 278 277 277 276 275 275 275 275 275 275 276 276 276 276 277 278 279 280 281 281 281 280 280 280 280 280 280 280 280 279 279 278 277 275 273 269 265 261 256 251
312 311 310 309 308 307 305 304 303 303 302 301 300 300 300 298 296 294 291 288 286 284 282 281 280 279 278 278 277 276 276 276 276 276 276 276 277 277 277 277 277 277 278 279 280 281 282 282 282 281 281 281 281 281 281 281 280 280 279 278 276 275 274 272 270 266 262 257 252
313 313 312 310 309 307 306 305 304 303 302 301 301 301 300 299 297 294 291 288 286 284 282 281 279 277 276 275 274 274 275 275 276 277 277 278 278 278 278 278 278 279 279 280 281 282 283 283 283 283 283 283 283 284 284 283 283 282 281 280 279 276 274 272 270 267 263 259 254
315 314 313 311 310 308 307 306 305 303 303 302 301 301 301 300 298 295 292 289 286 284 282 280 278 276 274 273 273 274 275 276 277 278 279 280 280 280 281 281 280 281 281 282 283 283 284 284 285 285 285 285 285 285 284 283 283 282 282 281 280 278 275 272 270 267 264 260 256
317 316 314 313 311 309 308 307 306 304 303 302 302 301 301 300 299 297 294 291 288 285 282 280 277 275 274 273 274 275 276 277 279 280 281 283 283 283 283 283 283 283 283 283 283 284 285 286 287 287 287 287 287 285 284 283 281 280 279 278 277 275 273 271 269 266 263 260 256
319 318 316 314 312 311 309 308 307 305 304 303 302 302 301 300 299 297 295 292 289 286 283 280 278 276 275 275 276 277 278 279 280 282 283 285 285 285 285 284 285 285 285 285 285 286 288 289 289 289 289 289 288 286 285 283 281 279 277 276 274 273 271 268 266 264 262 259 256
322 320 319 316 314 313 311 309 307 306 304 304 303 302 301 299 298 296 295 293 290 287 284 281 279 278 278 278 279 279 280 281 283 284 285 286 286 286 286 287 287 287 288 288 289 290 291 291 291 291 290 290 289 287 285 283 281 279 277 275 273 271 269 266 263 260 258 256 254
324 323 321 319 316 314 312 310 308 306 305 305 304 303 301 299 297 295 294 292 290 288 286 284 282 281 281 281 282 283 284 285 286 287 288 288 288 289 289 290 290 291 291 292 293 293 293 293 292 292 292 291 290 289 287 284 282 280 277 275 272 270 268 265 261 258 254 252 251
327 326 324 321 318 315 313 311 309 308 307 306 305 304 302 300 297 295 293 291 290 289 287 286 285 284 284 285 286 287 287 288 290 290 291 291 291 291 292 292 293 293 294 295 295 295 295 295 294 294 294 293 292 290 288 286 283 281 278 275 272 270 267 264 260 256 252 249 247
330 329 326 323 320 317 314 311 310 309 308 307 307 306 303 301 298 295 293 291 290 289 288 287 286 286 287 288 289 289 290 291 291 292 292 292 293 293 294 294 294 295 297 298 299 299 298 298 298 297 297 296 294 292 290 287 285 282 279 276 273 269 266 263 260 255 250 246 244
333 331 328 326 322 318 315 313 311 310 309 309 308 306 304 302 299 296 294 292 290 289 288 288 288 288 289 290 290 291 291 292 293 293 294 294 295 295 295 296 297 298 300 302 302 302 302 302 301 300 299 297 295 293 291 288 285 282 279 276 273 269 266 262 258 254 249 244 241
335 333 331 328 324 321 318 315 313 311 310 309 308 307 305 303 301 299 296 293 291 289 289 289 289 290 290 291 291 292 293 294 295 296 297 297 297 297 297 298 300 302 304 305 305 305 305 304 302 301 299 297 295 293 290 288 285 282 279 277 274 270 266 261 257 252 247 242 239
337 335 332 330 327 324 321 318 316 314 312 310 309 307 306 304 303 301 298 296 293 291 290 290 291 291 291 292 293 294 295 297 298 298 299 299 298 298 298 300 303 305 306 307 307 307 306 305 303 301 299 297 295 293 290 288 285 282 279 277 274 271 267 261 256 250 245 240 236
339 337 334 331 329 327 324 322 320 317 315 313 311 309 308 306 305 303 301 299 297 295 294 293 293 293 293 294 295 296 298 299 299 299 299 299 299 299 301 303 305 307 308 309 309 309 308 306 304 302 300 298 296 293 292 290 288 285 282 279 275 272 267 262 256 249 243 237 234
342 340 337 334 331 329 327 326 323 321 319 317 315 313 311 309 308 306 305 303 301 300 298 297 297 296 296 297 297 298 299 299 300 300 299 300 300 301 303 306 308 309 310 310 311 311 310 309 306 304 302 300 298 296 296 296 294 292 288 283 279 273 268 261 254 247 240 235 231
344 343 340 337 334 332 330 329 327 326 324 322 319 317 314 313 311 310 308 307 305 304 302 301 300 300 300 300 300 300 300 299 299 299 299 301 302 304 306 308 309 310 310 311 313 313 313 312 310 308 306 304 303 303 303 303 302 300 296 290 284 276 269 261 252 244 237 231 228
346 346 344 341 338 335 333 332 332 331 329 327 324 321 319 316 315 313 312 310 309 307 305 304 303 303 302 302 301 300 299 298 298 299 300 302 304 306 308 310 310 311 311 313 314 315 315 315 313 312 311 310 310 311 311 311 310 308 304 299 291 280 270 260 250 240 232 227 224
349 350 349 346 343 341 339 338 337 336 335 333 330 327 324 322 319 317 315 313 312 310 308 306 305 304 303 302 300 298 297 297 298 299 301 303 305 308 311 312 312 312 312 314 315 317 317 317 317 316 316 317 318 318 317 316 315 314 312 307 299 285 271 257 245 235 227 222 220
350 353 353 352 350 348 347 345 344 343 342 339 336 334 331 329 325 322 320 317 315 313 310 308 306 305 303 302 300 298 297 298 299 300 302 304 307 311 314 315 314 314 314 315 317 318 319 320 321 321 322 324 325 325 323 321 320 320 319 316 307 292 272 253 238 227 219 216 216
352 355 357 357 357 356 355 353 352 351 350 348 345 343 340 337 333 330 326 323 320 317 313 310 308 307 305 304 302 300 300 300 300 301 302 305 309 314 318 319 318 317 316 317 318 320 322 324 325 326 328 330 331 330 328 326 325 326 326 323 315 298 272 244 225 215 210 210 212